{"data":{"norad_id":52842,"epoch":"2026-05-25T02:49:15.458592Z","epoch_age_seconds":64296,"freshness":"FRESH","line1":"1 52842U 22062N   26145.11754003  .00000591  00000+0  55199-4 0  9999","line2":"2 52842  53.2137  50.9463 0001633  83.9358 276.1820 15.08837597217324","mean_motion":15.08837597,"eccentricity":0.0001633,"inclination_deg":53.2137,"raan_deg":50.9463,"arg_perigee_deg":83.9358,"mean_anomaly_deg":276.182,"bstar":5.5199e-5,"rev_number":21732,"period_min":95.437706673212,"perigee_km":538.62104291656,"apogee_km":540.88042505048,"semimajor_km":6917.8877339835,"source":"CELESTRAK","updated_at":"2026-05-25T13:38:17.243070Z"}}